User: anonymous   Login
Location: Dover
(39.1580°N, 75.5250°W)
Time: 09:28:09
(UTC-04:00)
Language:

SeaSat 1 - Orbit

View from above orbital plane
View from above orbital plane
View from above satellite
View from above satellite

Ground track
Ground track

The orbit data is extracted from the following two-line orbital elements,

1 10967U 78064A   17228.20041761 -.00000062  00000-0  22152-4 0  9994
2 10967 108.0160  64.8608 0000908 263.6308  96.4733 14.43657077 55262
Epoch (UTC): 16 August 2017 04:48:36
Eccentricity: 0.0000908
inclination: 108.0160°
perigee height: 746 km
apogee height: 747 km
right ascension of ascending node: 64.8608°
argument of perigee: 263.6308°
revolutions per day: 14.43657077
mean anomaly at epoch: 96.4733°
orbit number at epoch: 5526

The dashed part of the orbit path shows where the satellite is in the earth's shadow,  

DLR